Preston, MN

2:39 PM CST on November 22, 2017 (GMT -0600)
Preston

Weather History for KFKA - May, 2013

Change the Weather History Date:

Thursday, May 16, 2013

  Actual Average (KRST) Record (KRST)
Temperature  
Mean Temperature 70 °F -  
Max Temperature 82 °F 70 °F 92 °F (1936)
Min Temperature 57 °F 46 °F 29 °F (1956)
Cooling Degree Days 4    
Growing Degree Days 20 (Base 50)    
Moisture  
Dew Point 42 °F    
Average Humidity 35    
Maximum Humidity 55    
Minimum Humidity 21    
Precipitation  
Precipitation 0.00 in - - ()
Sea Level Pressure  
Sea Level Pressure 29.90 in    
Wind  
Wind Speed 6 mph (South)    
Max Wind Speed 9 mph    
Max Gust Speed -    
Visibility 10 miles    
Events      
Averages and records for this station are not official NWS values.
T = Trace of Precipitation, MM = Missing Value Source: NWS Daily Summary

Daily Weather History Graph

Daily Weather History Graph

Search for Another Location

Airport or City:

Trip Planner

Search our weather history database for the weather conditions in past years. The results will help you decide how hot, cold, wet, or windy it might be!

Date:

Astronomy

May. 16, 2013 Rise Set
Actual Time 5:42 AM CDT 8:28 PM CDT
Civil Twilight 5:08 AM CDT 9:02 PM CDT
Nautical Twilight 4:26 AM CDT 9:44 PM CDT
Astronomical Twilight 3:38 AM CDT 10:33 PM CDT
Moon 11:19 AM CDT (5/16) 12:46 AM CDT (5/16)
Length of Visible Light 15h 53m
Length of Day
14h 46m
Waxing Crescent, 36% of the Moon is Illuminated
May 16
Waxing Crescent
May 17
First Quarter
May 24
Full
May 31
Last Quarter
Jun 8
New

Hourly Weather History & Observations

Time (CDT) Temp. Dew Point Humidity Pressure Visibility Wind Dir Wind Speed Gust Speed Precip Events Conditions
12:14 AM 62.1 °F 40.3 °F 45% 29.90 in 10.0 mi SW 6.9 mph - N/A   Clear
12:35 AM 62.2 °F 40.1 °F 44% 29.90 in 10.0 mi SW 6.9 mph - N/A   Clear
12:54 AM 61.5 °F 40.1 °F 45% 29.90 in 10.0 mi SW 8.1 mph - N/A   Clear
1:14 AM 61.7 °F 39.2 °F 43% 29.90 in 10.0 mi SW 6.9 mph - N/A   Clear
1:34 AM 61.0 °F 39.2 °F 45% 29.90 in 10.0 mi SW 5.8 mph - N/A   Clear
1:55 AM 58.1 °F 41.0 °F 53% 29.90 in 10.0 mi SSW 4.6 mph - N/A   Clear
2:14 AM 58.5 °F 40.8 °F 52% 29.90 in 10.0 mi Calm Calm - N/A   Clear
2:34 AM 60.3 °F 40.1 °F 47% 29.90 in 10.0 mi SW 4.6 mph - N/A   Clear
2:55 AM 60.4 °F 39.6 °F 46% 29.90 in 10.0 mi SW 5.8 mph - N/A   Clear
3:14 AM 57.2 °F 41.0 °F 55% 29.90 in 10.0 mi SSW 6.9 mph - N/A   Clear
3:35 AM 58.5 °F 40.1 °F 51% 29.90 in 10.0 mi SW 8.1 mph - N/A   Clear
3:55 AM 59.2 °F 39.4 °F 48% 29.89 in 10.0 mi SW 6.9 mph - N/A   Clear
4:14 AM 58.6 °F 39.4 °F 49% 29.89 in 10.0 mi SW 4.6 mph - N/A   Clear
4:35 AM 60.3 °F 38.3 °F 44% 29.90 in 10.0 mi SW 5.8 mph - N/A   Clear
4:55 AM 59.4 °F 38.8 °F 47% 29.90 in 10.0 mi SW 8.1 mph - N/A   Clear
5:15 AM 59.2 °F 38.7 °F 47% 29.90 in 10.0 mi SW 6.9 mph - N/A   Clear
5:35 AM 60.6 °F 38.1 °F 43% 29.90 in 10.0 mi Calm Calm - N/A   Clear
5:55 AM 60.1 °F 37.8 °F 44% 29.91 in 10.0 mi West 3.5 mph - N/A   Clear
6:14 AM 61.5 °F 36.9 °F 40% 29.91 in 10.0 mi Calm Calm - N/A   Clear
6:35 AM 58.6 °F 39.7 °F 49% 29.92 in 10.0 mi SW 6.9 mph - N/A   Clear
6:54 AM 61.7 °F 38.7 °F 43% 29.92 in 10.0 mi SW 8.1 mph - N/A   Clear
7:15 AM 62.2 °F 39.6 °F 43% 29.93 in 10.0 mi SW 5.8 mph - N/A   Clear
7:35 AM 64.6 °F 39.7 °F 40% 29.93 in 10.0 mi SW 4.6 mph - N/A   Clear
7:55 AM 65.7 °F 39.9 °F 39% 29.93 in 10.0 mi SW 3.5 mph - N/A   Clear
8:14 AM 67.1 °F 40.6 °F 38% 29.94 in 10.0 mi WSW 3.5 mph - N/A   Clear
8:35 AM 69.8 °F 41.9 °F 36% 29.94 in 10.0 mi SW 3.5 mph - N/A   Clear
8:55 AM 70.5 °F 43.7 °F 38% 29.94 in 10.0 mi SSW 3.5 mph - N/A   Clear
9:15 AM 73.6 °F 41.5 °F 32% 29.94 in 10.0 mi SSW 6.9 mph - N/A   Clear
9:35 AM 77.4 °F 37.6 °F 24% 29.94 in 10.0 mi WSW 8.1 mph - N/A   Clear
9:52 AM 74.7 °F 45.9 °F 36% 29.93 in 10.0 mi WSW 5.8 mph - N/A   Clear
10:11 AM 74.7 °F 45.5 °F 35% 29.93 in 10.0 mi SW 9.2 mph - N/A   Clear
10:32 AM 76.1 °F 45.3 °F 33% 29.93 in 10.0 mi SW 5.8 mph - N/A   Clear
10:52 AM 77.0 °F 45.7 °F 33% 29.93 in 10.0 mi SSW 6.9 mph - N/A   Clear
11:11 AM 77.5 °F 45.7 °F 32% 29.92 in 10.0 mi West 6.9 mph - N/A   Clear
11:32 AM 78.1 °F 44.6 °F 30% 29.92 in 10.0 mi SSE 8.1 mph - N/A   Clear
11:52 AM 78.6 °F 44.6 °F 30% 29.92 in 10.0 mi South 5.8 mph - N/A   Clear
12:12 PM 78.8 °F 43.5 °F 29% 29.91 in 10.0 mi SSE 5.8 mph - N/A   Clear
12:32 PM 79.2 °F 43.5 °F 28% 29.91 in 10.0 mi Calm Calm - N/A   Clear
12:52 PM 79.9 °F 45.0 °F 29% 29.91 in 10.0 mi South 9.2 mph - N/A   Clear
1:11 PM 79.3 °F 43.3 °F 28% 29.90 in 10.0 mi South 9.2 mph - N/A   Clear
1:32 PM 80.1 °F 42.4 °F 26% 29.90 in 10.0 mi South 6.9 mph - N/A   Clear
1:52 PM 80.6 °F 43.2 °F 27% 29.89 in 10.0 mi Calm Calm - N/A   Clear
2:11 PM 81.5 °F 43.2 °F 26% 29.89 in 10.0 mi SSW 8.1 mph - N/A   Clear
2:32 PM 81.0 °F 41.4 °F 24% 29.89 in 10.0 mi SW 5.8 mph - N/A   Clear
2:52 PM 81.9 °F 41.0 °F 23% 29.88 in 10.0 mi SSE 9.2 mph - N/A   Clear
3:12 PM 81.9 °F 39.9 °F 22% 29.88 in 10.0 mi Calm Calm - N/A   Clear
3:32 PM 82.4 °F 41.4 °F 23% 29.87 in 10.0 mi SSE 6.9 mph - N/A   Clear
3:52 PM 81.5 °F 43.0 °F 26% 29.87 in 10.0 mi Calm Calm - N/A   Clear
4:11 PM 82.0 °F 39.2 °F 22% 29.87 in 10.0 mi Calm Calm - N/A   Clear
4:32 PM 81.5 °F 40.3 °F 23% 29.87 in 10.0 mi Calm Calm - N/A   Clear
4:52 PM 81.9 °F 43.0 °F 25% 29.87 in 10.0 mi South 9.2 mph - N/A   Clear
5:11 PM 82.4 °F 39.0 °F 21% 29.87 in 10.0 mi SE 3.5 mph - N/A   Clear
5:32 PM 80.1 °F 43.2 °F 27% 29.87 in 10.0 mi SSE 5.8 mph - N/A   Clear
5:52 PM 81.1 °F 42.6 °F 26% 29.86 in 10.0 mi SSE 5.8 mph - N/A   Clear
6:12 PM 81.0 °F 41.2 °F 24% 29.87 in 10.0 mi SE 6.9 mph - N/A   Clear
6:31 PM 80.6 °F 41.0 °F 24% 29.86 in 10.0 mi ESE 4.6 mph - N/A   Clear
6:52 PM 79.9 °F 42.1 °F 26% 29.87 in 7.0 mi ESE 4.6 mph - N/A   Clear
7:12 PM 79.2 °F 41.7 °F 26% 29.87 in 10.0 mi ESE 4.6 mph - N/A   Clear
7:31 PM 78.8 °F 41.9 °F 27% 29.88 in 10.0 mi ESE 3.5 mph - N/A   Scattered Clouds
7:52 PM 78.3 °F 41.9 °F 27% 29.89 in 10.0 mi ESE 3.5 mph - N/A   Mostly Cloudy
8:11 PM 77.4 °F 43.2 °F 30% 29.89 in 10.0 mi SE 4.6 mph - N/A   Scattered Clouds
8:32 PM 75.9 °F 43.2 °F 31% 29.89 in 10.0 mi SSE 4.6 mph - N/A   Mostly Cloudy
8:51 PM 75.4 °F 44.8 °F 34% 29.89 in 10.0 mi SSE 4.6 mph - N/A   Mostly Cloudy
9:11 PM 73.8 °F 45.3 °F 36% 29.90 in 10.0 mi SSE 6.9 mph - N/A   Scattered Clouds
9:31 PM 73.6 °F 45.7 °F 37% 29.91 in 10.0 mi South 6.9 mph - N/A   Clear
9:51 PM 73.8 °F 45.1 °F 36% 29.91 in 10.0 mi SSE 8.1 mph - N/A   Scattered Clouds
10:11 PM 73.0 °F 45.5 °F 37% 29.91 in 10.0 mi SSE 5.8 mph - N/A   Scattered Clouds
10:31 PM 72.5 °F 45.0 °F 37% 29.91 in 10.0 mi SSE 5.8 mph - N/A   Clear
10:51 PM 72.1 °F 45.0 °F 38% 29.91 in 10.0 mi SSE 5.8 mph - N/A   Clear
11:11 PM 72.5 °F 44.4 °F 36% 29.90 in 10.0 mi SSE 8.1 mph - N/A   Mostly Cloudy
11:31 PM 72.1 °F 44.6 °F 37% 29.89 in 10.0 mi SSE 6.9 mph - N/A   Overcast
11:52 PM 71.1 °F 45.7 °F 40% 29.90 in 10.0 mi South 4.6 mph - N/A   Overcast